Regional Weather Roundup
Issued by NWS Cleveland, OH

Home | Current Version | Previous Version | Graphics & Text | Print | Product List | Glossary On
Versions: 1 2 3 4 5 6 7 8 9 10 11 12 13 14 15 16 17 18 19 20 21 22 23 24 25 26 27 28 29 30 31 32 33 34 35 36 37 38 39 40 41 42 43 44 45 46 47 48 49 50
000
ASUS41 KCLE 280802
RWRCLE
OHIO REGIONAL WEATHER ROUNDUP
NATIONAL WEATHER SERVICE CLEVELAND, OH
400 AM EDT SUN AUG 28 2016

NOTE: "FAIR" INDICATES FEW OR NO CLOUDS BELOW 12,000 FEET WITH NO
SIGNIFICANT WEATHER AND/OR OBSTRUCTIONS TO VISIBILITY.

OHZ001>008-015>018-024>027-034-035-043-044-280900-
   NORTHWEST OHIO

CITY           SKY/WX    TMP DP  RH WIND       PRES   REMARKS
DEFIANCE       FOG       71  69  93 CALM      30.14S VSB 3/4
FINDLAY        PTCLDY    69  65  86 SW3       30.15R
TOLEDO EXPRESS CLOUDY    68  68 100 CALM      30.14R FOG
TOLEDO EXEC    CLOUDY    69  69 100 CALM      30.15R FOG
LIMA           PTCLDY    70  69  97 CALM      30.16R
$$

OHZ009>014-019>023-028>033-038-089-280900-
   NORTHEAST OHIO

CITY           SKY/WX    TMP DP  RH WIND       PRES   REMARKS
CLE-HOPKINS    PTCLDY    71  67  87 CALM      30.16R
CLE-LAKEFRONT  PTCLDY    74  69  85 CALM      30.13R
CUY CO. ARPT   NOT AVBL
LORAIN-ELYRIA  PTCLDY    66  64  93 CALM      30.15R
ASHTABULA      CLOUDY    68  68 100 CALM      30.16R
AKRON-CANTON   CLOUDY    72  67  84 S3        30.16S
WOOSTER        CLOUDY    66  66 100 CALM      30.17R FOG
MANSFIELD      PTCLDY    70  68  93 S5        30.17R
YOUNGSTOWN     PTCLDY    70  66  87 CALM      30.16R
$$

OHZ042-051>053-060>062-070>072-077>081-280900-
  SOUTHWEST OHIO

CITY           SKY/WX    TMP DP  RH WIND       PRES   REMARKS
CINC-COVINGTON CLEAR     73  72  96 CALM      30.15S
CINC-LUNKEN    CLEAR     70  70 100 CALM      30.15R
HAMILTON       CLEAR     69  67  93 CALM      30.14F
DAYTON         PTCLDY    73  68  84 S3        30.16S
WRIGHT-PAT AFB MOCLDY    70  70 100 E2        30.15S
DAYTON GENERAL PTCLDY    70  67  90 CALM      30.15S
WILMINGTON     PTCLDY    66  66 100 CALM      30.16R
$$

OHZ036-037-039>041-045>050-054>059-063>069-073>076-082>088-280900-
  CENTRAL AND SOUTHEAST OHIO

CITY           SKY/WX    TMP DP  RH WIND       PRES   REMARKS
COLUMBUS       MOCLDY    69  68  96 N3        30.14S
OSU AIRPORT    PTCLDY    69  69 100 CALM      30.15S
BOLTON FIELD   PTCLDY    68  68 100 NW3       30.16S
RICKENBACK AFB PTCLDY    68  68  99 CALM      30.14S
NEWARK         PTCLDY    67  66  97 CALM      30.15S
MARION         PTCLDY    69  67  93 S3        30.16R
LANCASTER      CLEAR     68  67  96 CALM      30.15S
ZANESVILLE     PTCLDY    68  67  96 CALM      30.15S
NEW PHILLY     PTCLDY    71  67  87 CALM      30.16R
$$




USA.gov is the U.S. government's official web portal to all federal, state and local government web resources and services.